Temp
-8 -8 -8 -9 -9 -8 -8 -8 -8 -8 -8 -8 -8 -8 -7 -7 -7 -7 -8 -8 -8 -7 -7 -8 -7 -7 -7 -7 -6 -6 -6 -6 -7 -7 -7 -7 -6 -6 -6 -6 -6 -6 -6
-7 -7 -7 -8 -8 -8 -8 -8 -8 -8 -7 -7 -7 -8 -8 -8 -7 -7 -7 -7 -7 -7 -7 -8 -8 -8 -7 -7 -7 -7 -7 -6 -6 -6 -6 -7 -6 -6 -7 -6 -6 -6 -6
-7 -7 -7 -8 -8 -8 -8 -8 -8 -8 -7 -7 -7 -7 -7 -8 -8 -8 -8 -7 -8 -7 -7 -7 -8 -8 -8 -7 -7 -7 -7 -6 -6 -6 -7 -7 -6 -6 -6 -7 -6 -6 -6
-7 -7 -7 -8 -7 -7 -7 -7 -7 -7 -7 -8 -7 -7 -7 -8 -8 -8 -8 -8 -8 -8 -8 -7 -7 -8 -8 -7 -7 -8 -7 -7 -7 -7 -7 -7 -7 -7 -7 -7 -7 -7 -6
-7 -7 -7 -8 -7 -7 -8 -8 -8 -8 -8 -8 -7 -7 -7 -7 -8 -8 -8 -8 -8 -8 -8 -8 -8 -8 -8 -8 -8 -7 -7 -7 -7 -7 -7 -7 -7 -7 -7 -7 -7 -7 -7
-8 -8 -7 -7 -7 -8 -8 -7 -7 -8 -8 -8 -8 -7 -8 -8 -8 -8 -8 -8 -8 -9 -8 -8 -8 -8 -8 -8 -8 -7 -7 -7 -7 -7 -7 -7 -7 -7 -7 -7 -7 -7 -7
-7 -7 -7 -7 -7 -7 -7 -7 -7 -7 -7 -7 -7 -7 -7 -8 -8 -8 -8 -8 -8 -8 -8 -8 -8 -8 -8 -8 -8 -7 -7 -7 -7 -7 -7 -7 -7 -7 -7 -7 -6 -6 -7
-7 -6 -6 -6 -6 -7 -7 -7 -7 -7 -7 -7 -7 -7 -7 -8 -8 -8 -8 -8 -8 -8 -8 -8 -8 -8 -8 -8 -8 -8 -7 -7 -7 -7 -7 -7 -7 -7 -7 -7 -6 -7 -7
-7 -6 -6 -6 -6 -7 -7 -7 -7 -7 -7 -6 -7 -7 -7 -7 -7 -8 -7 -8 -8 -8 -8 -8 -8 -8 -8 -8 -8 -8 -7 -7 -7 -8 -7 -7 -7 -7 -7 -7 -7 -7 -7
-7 -6 -6 -6 -6 -6 -6 -7 -7 -7 -7 -7 -7 -7 -7 -7 -8 -7 -8 -7 -8 -8 -8 -8 -8 -8 -8 -8 -8 -8 -8 -8 -7 -8 -7 -7 -7 -7 -7 -7 -7 -7 -7
-6 -6 -6 -6 -6 -6 -7 -6 -6 -7 -7 -7 -7 -7 -8 -8 -8 -8 -8 -8 -7 -8 -8 -8 -8 -8 -8 -8 -8 -8 -8 -8 -8 -8 -7 -7 -7 -7 -6 -7 -7 -7 -7
-7 -7 -7 -7 -7 -7 -6 -7 -7 -7 -8 -8 -7 -7 -8 -8 -8 -8 -8 -8 -8 -8 -8 -8 -8 -9 -8 -8 -8 -8 -8 -8 -8 -8 -7 -7 -7 -7 -7 -7 -7 -7 -7
-7 -7 -7 -7 -7 -7 -7 -7 -7 -7 -7 -8 -8 -7 -8 -8 -8 -8 -8 -8 -8 -8 -8 -8 -8 -8 -8 -8 -8 -8 -8 -8 -8 -8 -7 -7 -7 -7 -6 -7 -8 -7 -7
-7 -7 -7 -7 -7 -7 -7 -7 -7 -7 -7 -7 -7 -7 -8 -8 -8 -8 -8 -8 -8 -8 -8 -8 -8 -8 -8 -8 -8 -8 -8 -8 -8 -8 -8 -8 -7 -7 -7 -7 -7 -7 -7
-7 -7 -7 -7 -7 -7 -7 -7 -7 -7 -7 -7 -7 -7 -7 -8 -8 -9 -9 -8 -8 -8 -8 -8 -8 -8 -8 -8 -8 -8 -8 -8 -8 -8 -8 -8 -7 -8 -7 -7 -7 -7 -8
-7 -7 -7 -7 -7 -6 -6 -6 -6 -6 -6 -7 -7 -7 -7 -8 -8 -8 -8 -8 -7 -8 -8 -8 -8 -8 -8 -8 -8 -8 -8 -8 -8 -8 -8 -8 -7 -7 -7 -7 -7 -7 -8
-8 -7 -7 -7 -7 -7 -6 -6 -6 -6 -6 -6 -6 -6 -6 -7 -7 -7 -7 -7 -7 -7 -8 -8 -8 -8 -8 -8 -8 -8 -8 -8 -8 -8 -8 -7 -7 -7 -7 -7 -7 -7 -7
-8 -8 -7 -7 -7 -7 -7 -6 -6 -6 -6 -6 -6 -6 -6 -7 -7 -7 -7 -7 -7 -7 -7 -7 -7 -7 -7 -7 -8 -8 -8 -8 -7 -7 -7 -7 -7 -7 -7 -8 -7 -7 -7
-8 -8 -8 -7 -7 -7 -7 -7 -6 -6 -6 -6 -6 -7 -7 -7 -7 -7 -7 -7 -7 -7 -7 -7 -7 -7 -7 -7 -7 -7 -7 -7 -7 -7 -8 -8 -8 -8 -8 -8 -8 -9 -8
-8 -8 -8 -7 -8 -7 -7 -7 -7 -7 -7 -7 -7 -7 -7 -7 -7 -7 -7 -7 -7 -7 -7 -7 -7 -7 -7 -7 -8 -8 -8 -8 -8 -8 -8 -8 -8 -9 -9 -9 -9 -9 -9
-9 -8 -8 -8 -7 -7 -7 -7 -7 -7 -7 -7 -7 -7 -7 -7 -7 -7 -7 -7 -7 -7 -7 -7 -7 -7 -7 -7 -7 -7 -7 -8 -8 -8 -9 -9 -9 -9 -9 -9 -9 -9 -9
-8 -8 -8 -8 -8 -7 -7 -7 -8 -8 -7 -7 -7 -7 -7 -7 -7 -7 -7 -7 -7 -7 -7 -7 -7 -7 -7 -7 -7 -7 -8 -8 -8 -9 -9 -9 -9 -10 -10 -10 -10 -10 -10
-8 -8 -8 -8 -8 -8 -8 -8 -8 -8 -8 -8 -8 -8 -8 -8 -8 -8 -8 -8 -8 -7 -7 -7 -7 -8 -8 -8 -8 -8 -8 -9 -9 -9 -10 -10 -11 -11 -11 -11 -11 -11 -11
-9 -9 -8 -8 -8 -8 -9 -9 -9 -8 -8 -8 -8 -8 -8 -8 -8 -8 -8 -8 -8 -8 -8 -8 -8 -9 -9 -9 -9 -9 -9 -10 -10 -11 -11 -12 -12 -12 -12 -12 -12 -12 -12
-10 -9 -9 -9 -9 -9 -9 -9 -9 -8 -8 -9 -9 -9 -8 -8 -8 -8 -8 -8 -8 -8 -9 -9 -9 -10 -10 -10 -10 -11 -11 -11 -12 -12 -12 -12 -12 -13 -13 -13 -14 -14 -14
-10 -10 -10 -10 -9 -9 -9 -9 -9 -9 -9 -9 -9 -9 -9 -9 -9 -9 -9 -9 -9 -9 -10 -10 -10 -11 -11 -11 -12 -12 -12 -12 -12 -13 -13 -13 -13 -14 -14 -14 -14 -14 -14
Height
5887 5888 5888 5888 5889 5889 5891 5893 5894 5895 5896 5898 5900 5901 5902 5903 5904 5905 5906 5906 5907 5908 5908 5910 5911 5912 5914 5915 5916 5916 5916 5917 5917 5918 5918 5919 5919 5919 5920 5920 5920 5921 5921
5885 5886 5886 5887 5887 5888 5889 5891 5891 5893 5894 5895 5897 5898 5898 5899 5899 5900 5901 5903 5904 5904 5905 5905 5907 5909 5911 5912 5913 5913 5913 5914 5914 5912 5913 5916 5917 5918 5918 5919 5920 5920 5920
5885 5885 5885 5884 5886 5888 5888 5889 5889 5889 5890 5891 5893 5894 5895 5896 5897 5897 5897 5898 5899 5900 5900 5901 5903 5905 5906 5907 5909 5911 5910 5911 5910 5908 5910 5914 5915 5916 5916 5917 5917 5918 5919
5883 5884 5884 5884 5885 5885 5885 5886 5886 5887 5887 5887 5889 5889 5891 5892 5892 5892 5891 5891 5892 5894 5896 5897 5899 5901 5902 5903 5905 5906 5907 5907 5908 5909 5909 5910 5911 5912 5913 5913 5914 5915 5915
5882 5883 5883 5883 5884 5883 5882 5881 5882 5882 5883 5883 5884 5885 5886 5887 5887 5887 5885 5886 5889 5890 5892 5894 5896 5897 5898 5900 5901 5901 5902 5904 5905 5906 5906 5906 5907 5909 5909 5909 5909 5910 5911
5880 5881 5881 5881 5880 5879 5878 5879 5878 5878 5878 5879 5880 5881 5882 5881 5882 5882 5881 5883 5885 5886 5888 5890 5892 5893 5894 5895 5896 5896 5898 5899 5900 5901 5902 5904 5903 5902 5904 5904 5904 5905 5905
5879 5879 5879 5879 5878 5877 5877 5876 5876 5875 5875 5875 5876 5876 5877 5877 5877 5877 5877 5878 5880 5882 5885 5886 5888 5890 5890 5890 5891 5892 5894 5894 5896 5896 5896 5895 5898 5898 5898 5899 5899 5899 5900
5877 5876 5875 5875 5875 5875 5874 5873 5872 5871 5871 5872 5872 5873 5873 5874 5873 5873 5874 5874 5875 5879 5880 5882 5885 5887 5887 5887 5888 5888 5888 5891 5890 5890 5890 5888 5890 5891 5892 5893 5893 5894 5894
5874 5873 5873 5872 5872 5872 5871 5869 5868 5867 5867 5867 5867 5868 5868 5869 5868 5869 5870 5870 5872 5874 5876 5878 5879 5882 5883 5883 5884 5884 5885 5885 5885 5885 5884 5885 5886 5877 5883 5885 5884 5885 5886
5873 5872 5871 5871 5870 5869 5868 5866 5864 5862 5862 5862 5861 5861 5862 5863 5864 5865 5866 5865 5867 5870 5872 5873 5874 5876 5878 5879 5881 5881 5882 5882 5880 5879 5877 5876 5877 5877 5878 5879 5874 5869 5879
5871 5869 5868 5867 5867 5866 5865 5863 5861 5859 5858 5857 5857 5857 5857 5858 5859 5861 5862 5863 5864 5867 5869 5869 5870 5872 5873 5875 5877 5877 5877 5877 5875 5873 5872 5868 5869 5872 5872 5870 5872 5869 5874
5867 5866 5865 5865 5865 5864 5863 5862 5860 5858 5855 5854 5853 5853 5854 5854 5855 5858 5859 5859 5860 5863 5864 5865 5865 5866 5869 5871 5873 5873 5872 5872 5871 5870 5868 5865 5864 5865 5863 5862 5863 5864 5865
5866 5864 5864 5864 5863 5863 5862 5861 5859 5856 5853 5851 5851 5851 5851 5851 5852 5853 5854 5856 5856 5858 5858 5859 5862 5864 5865 5866 5867 5867 5867 5867 5866 5864 5862 5862 5861 5859 5857 5856 5857 5856 5857
5865 5864 5864 5863 5862 5862 5861 5859 5858 5856 5853 5851 5850 5850 5849 5850 5850 5850 5851 5853 5854 5854 5855 5856 5859 5859 5861 5862 5862 5862 5861 5861 5860 5859 5858 5857 5856 5855 5853 5851 5850 5849 5848
5866 5865 5863 5863 5862 5861 5859 5858 5858 5856 5853 5852 5851 5850 5849 5849 5849 5849 5849 5851 5851 5852 5852 5854 5855 5855 5856 5856 5857 5857 5856 5855 5855 5854 5853 5851 5850 5849 5848 5847 5845 5843 5842
5865 5864 5863 5862 5861 5859 5859 5859 5858 5857 5855 5853 5851 5850 5850 5850 5849 5849 5848 5850 5850 5850 5850 5850 5850 5851 5851 5851 5852 5851 5851 5850 5849 5848 5847 5845 5843 5841 5840 5839 5838 5836 5834
5863 5863 5862 5861 5860 5859 5859 5858 5859 5858 5856 5854 5854 5853 5852 5851 5849 5849 5849 5849 5849 5849 5848 5848 5848 5848 5847 5847 5847 5846 5845 5844 5843 5841 5840 5838 5837 5835 5833 5831 5830 5828 5826
5862 5861 5861 5860 5859 5859 5859 5858 5858 5858 5856 5855 5854 5854 5853 5853 5851 5850 5849 5849 5848 5847 5846 5846 5845 5845 5844 5843 5842 5840 5839 5838 5836 5835 5834 5832 5830 5829 5827 5825 5822 5820 5818
5861 5861 5859 5858 5858 5858 5858 5858 5858 5858 5857 5855 5853 5852 5852 5851 5850 5848 5847 5846 5846 5845 5844 5844 5843 5842 5841 5839 5838 5836 5835 5833 5831 5829 5828 5826 5824 5822 5820 5818 5816 5814 5811
5859 5859 5859 5858 5857 5856 5856 5857 5857 5856 5856 5855 5853 5852 5851 5849 5848 5846 5844 5843 5843 5842 5842 5840 5838 5837 5835 5834 5832 5830 5829 5827 5825 5823 5821 5819 5816 5814 5812 5809 5807 5804 5801
5857 5857 5858 5857 5855 5855 5854 5854 5855 5854 5853 5853 5852 5850 5848 5847 5845 5843 5841 5840 5839 5838 5836 5835 5833 5831 5830 5827 5825 5823 5820 5818 5816 5813 5811 5809 5807 5804 5801 5798 5795 5793 5790
5856 5855 5855 5855 5854 5853 5852 5851 5851 5851 5850 5849 5848 5847 5846 5844 5842 5840 5838 5836 5835 5833 5831 5829 5827 5825 5823 5820 5818 5815 5812 5809 5807 5804 5801 5799 5796 5793 5790 5788 5785 5783 5780
5853 5852 5852 5852 5850 5850 5850 5850 5848 5848 5847 5845 5844 5844 5842 5840 5838 5836 5834 5833 5831 5829 5827 5824 5821 5819 5816 5813 5810 5806 5803 5800 5797 5794 5791 5788 5786 5783 5780 5777 5775 5772 5769
5849 5850 5850 5848 5846 5847 5847 5848 5847 5845 5844 5842 5841 5839 5837 5836 5834 5832 5829 5827 5825 5823 5820 5818 5814 5810 5807 5804 5800 5796 5792 5789 5786 5783 5780 5778 5775 5772 5769 5766 5763 5761 5759
5849 5849 5848 5847 5845 5844 5843 5844 5843 5841 5839 5838 5836 5834 5833 5830 5828 5826 5824 5820 5817 5815 5811 5808 5804 5801 5796 5793 5789 5785 5781 5778 5774 5771 5769 5765 5763 5760 5757 5754 5752 5750 5748
5847 5847 5846 5845 5844 5843 5841 5840 5838 5836 5834 5833 5831 5829 5826 5823 5820 5818 5816 5812 5809 5805 5802 5797 5793 5789 5786 5781 5777 5773 5770 5766 5763 5759 5756 5753 5750 5748 5745 5743 5741 5739 5737
Wind_Speed
12 10 10 10 13 16 16 18 16 16 15 15 16 18 18 19 22 23 22 21 23 24 21 19 18 16 14 13 14 13 12 12 15 16 13 12 11 8 7 7 6 6 7
10 7 10 9 9 13 13 15 18 18 18 18 17 18 18 20 22 24 24 26 24 26 25 23 21 18 16 16 15 15 16 14 18 22 21 14 13 12 10 10 10 9 8
8 10 10 8 9 11 14 15 13 18 19 20 19 16 17 20 22 22 22 27 27 22 26 24 21 21 19 19 18 17 15 15 15 9 12 13 11 12 14 14 13 13 13
10 11 13 11 11 13 13 14 14 15 14 16 20 23 21 21 24 27 30 27 22 22 23 26 23 21 22 22 21 18 19 16 12 11 11 13 14 14 13 15 16 17 17
12 15 13 14 14 16 16 17 17 18 18 20 20 18 20 21 22 22 21 24 23 21 20 25 26 24 24 24 23 23 22 19 16 18 17 17 17 17 16 16 18 19 21
16 14 16 14 15 16 19 17 18 21 23 24 22 21 20 21 20 16 19 19 21 19 19 20 22 24 24 24 26 27 23 17 20 22 23 22 24 24 24 24 25 22 21
7 9 12 16 17 16 15 17 17 17 21 22 20 22 21 21 21 19 17 22 22 21 20 24 22 22 20 21 21 24 24 22 22 22 25 25 23 23 23 24 23 22 24
7 11 13 12 12 11 13 13 15 17 18 19 20 22 20 21 20 20 18 22 23 23 20 24 24 24 21 19 19 22 21 20 23 24 28 25 21 26 27 22 24 23 26
9 12 11 10 11 12 13 13 15 16 17 19 19 18 20 19 20 21 20 22 25 23 24 24 23 23 22 19 21 21 24 26 29 30 34 29 26 29 30 27 27 27 26
9 10 8 9 11 11 11 15 17 17 18 18 20 20 18 19 19 19 16 20 21 22 21 21 20 24 22 19 21 20 20 22 24 27 29 34 33 29 26 30 30 32 26
8 7 6 6 7 9 12 16 17 18 19 18 17 15 15 16 17 16 17 16 19 20 22 20 22 24 22 22 21 22 23 22 21 17 23 22 24 24 25 26 29 29 29
6 6 7 7 6 9 13 14 15 15 15 15 12 11 11 12 13 15 18 14 13 17 18 20 22 24 24 23 23 24 22 21 26 19 17 15 14 22 24 27 27 30 35
4 4 5 6 7 8 10 10 12 11 11 10 8 8 8 10 12 12 14 16 17 16 18 18 19 18 20 21 21 20 19 18 17 16 17 16 17 17 14 19 30 32 34
4 2 3 5 5 4 5 8 11 9 8 5 5 5 5 5 6 7 12 14 11 14 20 20 19 19 19 20 21 20 21 18 17 18 20 21 21 21 20 20 22 24 25
2 1 1 2 4 5 6 7 8 6 8 5 5 5 4 3 3 6 5 7 6 7 9 13 17 16 16 18 19 20 20 21 21 20 21 23 22 22 22 22 23 25 26
0 0 1 2 4 7 6 3 6 6 7 8 7 6 5 5 4 2 9 4 4 7 6 9 12 12 14 15 17 19 20 20 19 20 22 23 25 28 27 24 24 28 31
3 2 1 2 4 5 3 2 2 5 8 13 15 15 13 11 9 8 5 4 3 4 6 8 8 10 12 15 18 21 21 20 21 21 22 24 24 22 21 24 27 26 25
3 3 4 3 2 1 1 5 6 6 5 5 7 7 8 8 8 7 6 6 7 5 4 6 7 9 12 14 16 18 19 21 22 21 22 23 25 25 26 27 30 31 33
4 4 3 3 2 2 3 3 3 2 2 4 5 7 9 10 10 10 10 10 11 12 12 12 13 13 15 18 20 21 21 22 24 25 26 28 30 31 31 32 33 34 35
4 5 5 3 4 4 4 6 6 6 7 9 10 11 13 14 14 14 13 12 13 13 14 16 17 19 21 23 25 26 28 29 30 32 33 34 35 36 36 38 37 38 38
7 7 7 6 5 7 7 8 9 10 11 13 15 15 15 14 12 12 13 13 15 17 19 21 23 24 26 28 30 32 33 35 36 36 37 39 39 40 41 42 42 43 42
8 10 9 9 8 8 8 10 12 13 13 12 11 11 11 13 15 15 15 17 18 21 22 23 25 28 30 32 34 35 37 39 41 42 43 44 44 44 44 43 44 46 45
5 7 8 10 10 9 9 10 9 9 9 9 10 12 16 17 17 18 19 19 20 22 24 26 28 30 32 34 37 39 41 42 43 45 46 46 46 45 46 46 47 46 44
6 8 9 7 7 7 6 7 9 10 11 14 17 18 17 17 19 21 20 22 25 26 28 30 31 32 33 35 37 39 41 43 43 44 44 45 46 47 46 45 43 41 40
7 8 7 5 4 6 8 12 15 16 16 16 16 18 20 20 21 23 25 27 28 30 32 33 35 35 35 36 37 38 39 40 41 42 42 43 44 44 42 40 38 37 35
7 10 11 13 14 15 16 15 15 17 17 20 23 23 24 25 27 28 28 30 33 35 36 37 38 38 37 37 38 39 39 40 40 40 39 40 40 39 38 37 36 36 36
Wind_Direction
265 274 259 259 256 245 241 243 244 247 246 242 243 243 246 250 251 249 254 258 256 246 241 248 252 237 245 255 271 285 287 289 289 282 271 259 249 240 249 245 240 251 253
246 253 249 254 250 244 245 249 246 247 248 251 250 247 245 245 249 253 254 257 257 253 242 248 245 252 253 254 261 275 283 288 293 283 254 245 248 246 245 250 251 251 247
242 246 251 250 255 261 268 272 265 252 249 249 249 249 251 254 254 259 264 249 255 253 248 243 250 250 253 257 263 272 276 278 301 298 231 240 253 254 258 257 255 254 251
248 248 260 262 258 260 261 269 268 263 263 257 253 254 256 262 262 265 276 252 243 250 247 247 246 250 256 260 262 267 270 287 266 273 244 248 259 259 260 264 266 263 260
245 256 250 251 268 274 272 277 277 276 271 266 259 261 254 266 257 264 281 247 247 250 257 249 250 250 253 260 263 263 268 275 254 256 254 252 257 259 265 269 269 264 261
257 259 264 265 272 275 278 280 280 280 278 274 272 267 266 265 264 266 252 245 240 243 252 252 246 247 254 258 259 256 257 257 258 261 256 258 261 257 263 273 281 264 259
264 275 268 268 270 271 276 279 273 270 267 271 272 270 268 263 261 259 265 249 247 247 250 250 250 254 254 258 253 260 256 249 250 261 257 257 258 263 266 275 275 266 262
282 305 302 285 275 275 291 294 288 284 278 277 269 270 269 269 261 256 261 253 254 246 248 257 254 258 259 259 260 256 264 254 264 267 272 275 266 265 266 268 270 272 264
300 303 296 287 287 286 287 291 291 288 284 282 280 272 259 255 257 256 266 256 249 245 253 259 253 253 258 256 261 263 270 270 276 279 276 269 271 277 270 265 264 266 262
299 302 298 281 267 282 293 299 300 300 294 285 275 270 266 262 258 260 258 261 251 240 253 260 252 251 252 255 262 270 273 277 284 282 285 276 267 274 285 272 287 252 270
314 315 303 315 308 304 306 313 307 301 297 289 280 272 263 260 263 263 267 262 243 238 248 254 251 250 254 259 261 269 274 279 292 284 294 296 268 263 276 262 259 261 261
333 323 319 312 309 305 315 306 301 303 298 290 287 279 265 258 260 267 264 261 244 248 248 250 255 247 251 258 268 270 270 276 290 309 297 309 280 271 274 261 268 252 259
323 336 352 338 328 324 317 317 324 321 309 302 295 279 266 267 268 267 264 259 264 263 271 253 244 251 256 262 266 271 274 278 283 292 304 292 285 285 290 275 260 250 260
305 316 323 319 335 336 332 338 336 333 335 322 325 313 292 272 291 284 250 252 268 263 272 233 242 251 258 261 266 269 270 272 275 283 279 277 279 280 279 278 274 264 265
297 261 7 340 341 338 355 9 359 356 17 34 9 19 26 356 337 10 240 242 259 269 296 247 245 252 259 267 268 272 276 277 277 280 285 281 277 278 280 278 275 274 272
272 291 353 322 347 357 349 15 31 54 51 47 38 47 45 46 43 57 61 52 324 278 287 315 253 261 270 271 271 275 278 277 277 278 280 279 279 279 277 280 282 280 270
257 251 287 329 358 1 351 83 106 97 81 78 71 65 63 60 52 49 52 53 1 348 321 312 294 282 279 278 275 275 275 276 278 280 281 283 282 286 282 278 284 283 276
285 274 271 292 305 341 126 110 103 107 94 70 53 37 29 26 21 16 7 354 336 333 313 300 294 288 282 277 276 276 277 276 276 278 280 283 285 285 285 285 283 280 279
273 279 283 292 276 235 217 202 192 223 280 303 325 335 334 332 330 327 324 319 314 308 301 295 290 285 282 283 283 282 280 277 274 273 276 278 279 280 281 281 280 279 278
278 291 291 287 294 256 252 266 263 268 285 298 305 308 307 308 309 309 308 306 302 299 295 292 289 287 288 289 288 288 286 283 279 279 277 275 275 276 280 282 283 285 283
287 288 288 287 279 268 253 256 267 272 275 283 290 294 298 303 309 312 310 305 301 300 297 296 295 295 294 292 290 288 287 287 284 281 281 282 283 284 285 285 287 286 287
293 292 298 299 286 277 276 274 275 277 275 281 291 300 302 302 301 302 304 303 301 302 298 297 296 293 292 290 286 284 282 281 282 280 281 283 284 285 286 285 285 288 286
301 299 293 288 290 289 288 288 280 279 283 289 292 292 299 300 300 300 301 301 299 299 299 297 295 292 291 289 286 284 281 281 280 279 280 281 281 282 283 284 284 284 283
322 313 304 307 288 281 285 289 289 296 293 296 298 299 301 302 303 304 305 305 304 304 304 301 298 295 292 290 288 286 283 282 282 281 280 280 279 282 283 284 284 283 282
320 310 300 299 296 304 300 302 302 303 301 304 304 303 302 303 305 307 307 305 306 307 307 305 303 300 296 293 289 288 286 285 285 285 285 284 284 285 285 284 283 281 278
301 297 302 304 306 304 303 309 307 306 305 307 304 303 302 303 305 308 310 311 312 312 310 307 306 304 300 297 294 291 289 289 289 289 290 289 288 288 286 284 282 280 279